Location: Centerville
(32.8776°N, 96.6203°W)
Time: 01:28:21
(UTC+00:00)

FENGYUN 3A - Pass Details

Date: 17 June 2021
Orbit: 824 x 835 km, 98.5° (Epoch: 27 July)

Event Time Altitude Azimuth Distance (km) Brightness Sun altitude
Rises 10:31:50 0° 10° (N) 3,383 7.6 -9.0°
Reaches altitude 10° 10:34:11 10° 10° (N) 2,447 6.8 -8.6°
Maximum altitude 10:39:37 79° 284° (WNW) 853 3.7 -7.7°
Drops below altitude 10° 10:45:01 10° 199° (SSW) 2,437 5.6 -6.8°
Sets 10:47:22 0° 197° (SSW) 3,367 6.4 -6.4°
